Theta_e
338 339 337 336 337 339 341 341 339 338 339 338 343 341 337 337 340 341 340 338 337 335 337 337 337 333 334 333 333 334 333 334 333 333 333 335 336 340 347 345 343 343 347 346 346 346 346 346 345 345 344 343 342 342 340 339 337 335 333 333 332 331 332 332 332 331 331 331 332 332 331 331 331 330 330 330 331 331 330 331 334 334 334 334 334
339 338 335 337 337 338 343 342 339 338 340 339 338 338 338 339 338 338 338 337 336 336 339 337 335 335 334 334 333 332 332 335 334 333 336 335 337 339 346 346 344 343 344 346 346 346 346 347 347 346 345 344 343 343 341 340 338 336 335 334 333 332 333 332 332 332 331 332 332 332 332 331 331 331 331 330 330 330 331 331 334 334 334 333 333
338 339 337 335 336 339 340 340 339 340 340 339 338 341 339 338 338 337 338 338 339 340 339 338 335 336 337 335 333 333 336 333 337 335 334 334 338 335 342 346 345 343 343 343 346 347 346 346 347 346 346 346 344 345 342 340 338 337 336 335 334 333 333 333 333 333 331 332 333 332 332 332 332 331 331 331 330 330 331 331 333 334 333 333 332
340 340 339 339 338 338 339 338 336 339 341 340 339 340 340 339 341 339 338 337 337 336 337 335 335 334 334 334 333 334 335 336 335 334 335 334 336 335 333 337 344 345 344 342 343 345 347 347 346 346 347 346 345 344 343 341 340 338 337 336 334 334 334 333 333 333 332 332 333 333 332 333 332 332 332 331 331 331 331 331 332 333 333 333 332
344 340 342 339 337 337 339 340 341 340 341 342 342 341 341 340 339 340 339 338 337 336 337 335 333 334 335 335 334 335 337 336 334 334 334 334 334 335 336 336 336 343 345 344 343 342 344 346 347 347 346 346 345 344 343 342 341 339 337 337 335 334 334 334 333 333 332 332 333 333 332 332 333 332 332 331 331 331 331 331 332 333 333 332 331
342 341 340 339 339 338 339 337 338 341 341 343 341 340 339 340 339 337 341 337 336 335 334 334 333 333 334 335 334 334 335 335 335 333 333 334 334 335 336 335 334 334 336 342 343 343 343 342 345 346 346 346 346 345 344 344 341 340 338 337 337 335 335 334 334 333 333 332 332 333 333 333 333 332 332 332 332 332 331 331 333 332 332 332 331
343 341 342 338 336 338 336 336 337 341 341 341 340 339 339 338 336 336 336 335 335 335 335 333 333 334 335 335 334 335 335 335 336 335 336 334 333 336 337 334 333 334 335 335 341 344 344 343 343 344 345 346 345 345 346 344 343 341 339 338 337 337 335 335 335 334 333 332 333 333 333 333 333 333 332 332 332 332 332 331 331 332 332 331 330
342 342 340 339 336 338 338 338 340 341 340 339 339 337 338 338 338 335 333 333 334 334 334 333 333 334 334 334 334 335 336 336 336 336 337 336 336 335 335 335 335 335 341 336 336 338 343 344 343 342 342 343 344 345 345 345 343 342 341 339 338 338 336 335 335 335 334 333 332 333 333 333 333 334 333 332 332 332 331 331 331 331 332 332 332
341 342 341 340 339 338 340 339 340 339 338 337 337 337 336 337 335 337 334 331 333 332 332 332 333 333 333 333 334 335 334 334 335 336 338 336 335 335 335 335 336 347 340 338 336 336 340 343 343 342 341 341 341 343 345 345 345 343 342 340 338 338 337 336 335 335 335 333 332 333 333 333 333 334 333 333 332 332 331 331 330 330 331 330 331
338 339 338 339 337 336 336 337 337 336 335 335 334 334 334 333 332 333 334 333 331 331 331 332 334 334 333 333 333 333 334 335 335 337 336 335 335 334 336 336 336 337 337 336 337 336 336 339 342 342 341 340 340 343 344 345 345 345 342 342 339 338 338 337 336 335 335 334 333 333 333 333 333 333 333 333 332 332 332 331 330 329 330 330 331
336 336 336 336 335 334 333 334 335 333 333 332 332 331 331 331 329 330 332 331 330 331 330 329 331 331 332 332 332 333 334 335 336 335 335 334 335 337 338 336 335 335 336 337 336 336 336 337 337 338 339 340 340 341 342 344 344 345 344 342 341 340 339 337 338 337 335 335 334 334 333 334 333 333 333 333 333 333 332 331 331 330 330 330 331
333 332 332 334 334 333 332 332 333 332 330 329 329 328 328 328 327 328 327 329 330 330 328 327 327 326 327 327 328 329 330 332 334 335 335 335 335 335 334 334 333 333 335 337 336 335 335 335 338 337 337 338 339 339 339 340 341 342 344 344 341 339 340 338 338 339 337 336 334 334 334 334 333 333 334 333 333 333 333 332 331 331 331 331 331
331 329 328 330 329 331 330 330 330 330 331 330 330 329 329 327 325 326 325 324 325 326 325 326 323 322 323 322 324 327 329 329 332 332 331 333 335 334 333 332 332 332 333 333 333 333 333 333 335 337 337 336 337 337 338 339 339 340 343 344 343 341 340 339 339 338 338 337 335 335 334 334 334 333 333 334 333 333 332 332 332 331 331 331 331
328 327 326 326 325 325 327 325 325 326 327 328 327 328 325 324 323 321 323 322 321 323 324 324 320 319 318 319 320 323 324 327 326 326 326 328 330 332 333 332 333 333 333 333 333 333 333 332 331 333 337 337 336 335 336 337 337 338 341 341 342 342 341 341 340 339 337 337 336 335 335 334 334 334 334 334 334 333 332 331 332 331 331 331 331
325 327 324 324 323 322 323 324 323 325 322 322 322 321 321 320 320 319 318 320 320 323 322 321 317 319 319 315 314 316 319 321 323 322 324 325 325 326 327 327 327 327 328 330 331 330 332 332 331 330 333 336 336 336 335 336 335 338 339 340 341 342 343 342 340 340 339 337 338 337 335 335 334 334 334 334 333 332 332 331 331 332 332 331 331
323 323 323 322 321 321 321 321 322 322 320 319 318 318 318 318 319 319 318 315 316 318 320 319 319 317 313 314 314 314 311 315 316 319 324 323 324 323 324 324 322 322 323 326 325 326 327 327 328 328 329 333 336 335 335 334 336 339 339 337 337 341 343 342 339 339 339 337 337 338 335 335 335 334 334 334 333 331 331 331 332 331 331 331 331
321 321 323 320 320 320 319 319 318 318 321 317 316 316 317 317 317 316 316 314 313 314 316 318 318 319 317 315 312 312 311 313 315 316 320 320 321 321 323 320 319 319 321 322 321 321 321 321 321 322 324 326 330 334 334 334 333 335 335 335 337 337 339 342 342 340 339 340 338 337 335 334 335 333 334 333 333 332 332 332 331 331 332 331 331
319 319 319 321 318 318 317 316 316 317 318 316 316 315 316 316 316 315 314 314 312 312 311 315 317 316 318 317 318 313 311 313 314 309 317 319 319 319 319 317 316 316 320 318 317 317 318 318 318 319 321 323 327 329 330 333 334 331 331 332 332 333 331 333 337 339 339 339 340 337 337 334 334 333 334 334 334 333 333 332 332 331 331 331 331
317 317 316 318 317 316 315 315 316 316 318 315 314 314 315 315 315 313 312 313 312 310 310 310 312 313 314 314 316 316 315 312 308 310 307 312 314 314 314 314 314 315 316 314 315 314 315 316 316 318 320 323 326 327 328 330 332 333 333 330 329 330 328 327 333 338 337 339 339 338 338 335 334 333 334 334 333 333 333 333 332 332 331 331 331
316 315 315 316 316 315 315 314 315 316 316 313 313 314 314 314 314 312 312 312 312 310 309 310 309 309 312 310 312 312 312 313 312 309 308 305 306 311 311 310 311 313 312 312 312 312 312 314 315 317 318 319 321 326 327 329 329 328 327 325 327 329 329 329 327 330 337 339 339 336 337 337 336 334 335 335 333 333 333 333 333 332 332 331 331
315 314 314 314 316 315 313 313 314 315 316 313 313 312 312 311 310 310 309 310 312 312 308 307 308 306 307 307 307 307 309 310 310 309 306 304 303 303 304 307 308 309 309 310 310 310 311 313 314 315 316 314 315 323 319 326 323 319 319 318 321 325 327 328 323 320 322 332 338 339 337 337 337 337 336 334 334 333 333 333 333 332 332 332 331
313 313 313 313 313 314 313 312 313 315 316 312 312 311 311 310 310 310 309 308 309 309 308 307 308 307 307 307 305 305 306 306 305 305 305 305 301 301 303 302 301 304 307 306 307 308 310 310 310 312 310 311 313 315 313 316 316 313 315 318 319 319 324 326 323 319 320 322 331 335 337 335 335 337 335 334 335 334 333 333 333 334 333 333 332
311 311 311 312 312 314 312 312 313 315 314 311 310 311 310 310 309 309 309 308 307 307 308 308 307 307 307 306 305 306 305 303 302 303 303 301 301 301 302 303 302 301 303 305 306 307 307 308 309 308 308 309 311 310 310 311 314 314 316 317 317 318 318 320 320 318 320 323 326 328 333 337 336 336 334 334 335 334 334 335 335 335 334 333 333
310 308 308 310 311 309 311 310 311 310 310 310 310 311 310 310 309 309 309 308 308 310 307 306 306 306 305 306 306 308 305 303 303 302 301 301 301 300 300 301 300 301 303 303 304 304 305 306 306 306 307 308 308 307 307 308 308 312 312 313 314 315 317 317 315 315 316 317 319 321 329 334 335 335 335 335 335 334 335 335 335 333 334 334 333
308 307 307 308 309 308 308 308 307 309 310 310 309 310 307 307 308 308 308 307 307 307 305 305 306 304 304 306 306 305 304 304 304 302 302 302 301 298 299 299 296 298 300 301 300 302 304 303 304 305 305 305 305 305 305 305 305 310 312 310 312 314 314 316 318 314 312 313 314 318 326 331 332 335 333 334 333 334 333 332 331 327 329 329 330
307 307 308 308 308 308 308 308 308 308 309 308 308 308 307 306 305 306 306 307 306 305 305 305 305 304 305 304 303 302 303 304 303 302 302 300 298 297 296 297 297 296 298 298 300 298 300 302 303 303 303 303 303 303 303 304 305 309 311 310 309 312 313 312 313 314 314 316 318 319 322 326 328 332 332 332 332 330 331 328 325 324 322 320 320
307 308 309 307 307 307 308 306 306 306 306 306 307 306 306 305 305 305 306 307 305 305 304 304 305 303 303 302 303 301 301 303 302 301 301 299 298 297 295 293 293 294 295 296 297 297 297 300 302 301 302 303 302 302 303 303 306 308 310 307 307 310 309 309 311 313 314 314 315 317 317 318 320 323 326 327 328 326 324 325 325 322 322 319 320
308 307 308 307 306 305 306 305 305 305 306 306 305 304 305 305 303 303 303 309 305 304 304 303 303 303 302 302 301 300 301 302 301 300 299 299 298 297 296 294 291 289 292 292 293 294 298 297 299 300 300 301 301 301 304 303 302 308 309 305 305 306 308 309 310 312 312 311 311 314 315 313 313 314 317 321 324 324 325 325 324 322 320 319 321
309 308 306 306 306 305 304 304 304 304 305 305 305 304 304 303 303 302 303 303 305 303 303 303 303 302 302 301 301 300 300 300 300 299 298 298 297 297 297 295 294 290 289 288 290 291 294 297 294 297 300 300 300 301 301 301 304 305 304 303 304 304 307 309 308 308 309 309 311 312 314 315 315 313 316 322 324 325 325 323 321 320 320 320 323
309 309 306 305 305 308 303 303 303 304 304 304 304 304 303 302 303 302 302 303 302 303 304 303 302 302 302 300 300 299 299 299 298 298 298 297 296 296 296 296 295 292 291 288 289 293 293 295 296 296 298 299 300 300 301 301 305 303 302 302 303 304 307 307 307 306 307 308 309 309 310 311 314 317 320 321 323 322 321 320 318 318 319 322 325
307 304 303 303 303 302 302 302 302 302 302 303 303 302 303 301 303 301 302 302 301 301 301 303 303 301 300 299 299 298 298 297 297 297 297 297 296 296 295 295 295 294 292 291 288 292 295 293 295 298 297 298 299 299 300 300 302 303 302 302 302 306 308 306 307 307 307 307 306 309 313 313 311 311 314 317 320 322 321 320 319 319 322 324 322
304 303 302 302 302 301 301 300 300 300 300 300 301 301 301 302 301 302 302 301 301 300 300 301 303 301 299 298 298 297 297 296 296 296 296 296 296 295 295 294 294 294 293 292 290 290 295 294 295 296 297 297 298 298 298 299 301 304 301 301 302 306 303 303 305 306 306 306 306 307 308 308 308 310 311 314 316 319 321 321 319 321 323 319 317
304 303 302 302 301 300 299 300 298 298 298 298 299 299 299 299 302 302 301 301 300 300 301 300 300 300 298 297 297 297 297 295 295 295 295 295 295 295 295 294 293 294 293 292 290 290 293 296 296 296 297 298 297 298 297 298 298 299 302 300 301 300 301 301 302 305 305 306 305 304 305 305 306 311 314 314 317 319 320 318 318 316 316 316 315
304 304 302 302 300 300 299 297 297 296 297 297 298 298 299 299 300 303 302 301 300 299 299 298 298 299 297 296 296 296 296 295 295 295 295 295 294 294 293 293 293 293 294 293 291 290 290 293 294 296 296 298 295 298 297 297 297 299 298 299 300 300 300 301 301 303 305 305 304 303 304 304 306 308 308 308 309 311 314 313 313 313 314 315 311
304 302 301 301 300 299 298 296 296 296 296 296 297 297 298 298 299 300 301 299 299 299 298 298 298 298 297 296 295 296 297 294 294 294 295 294 294 293 292 293 293 293 294 294 293 291 291 292 294 294 295 296 296 296 297 298 298 298 297 298 298 300 301 301 301 302 302 302 303 303 303 305 305 304 305 306 307 308 309 310 311 312 311 312 310
303 302 301 300 299 298 296 295 295 295 295 295 295 296 297 297 298 300 300 299 299 299 298 297 297 297 296 295 294 295 295 294 293 293 293 292 292 292 292 292 293 293 294 295 295 293 292 291 293 293 295 294 295 297 297 298 297 297 298 298 299 299 299 301 300 300 301 303 303 303 304 304 304 304 304 305 307 307 307 308 310 310 309 310 310
302 301 301 300 298 297 296 295 294 294 294 294 294 294 295 296 297 298 299 299 298 298 298 299 301 296 296 295 295 294 294 293 292 291 291 291 292 292 291 292 292 293 295 295 295 295 293 292 292 294 295 295 296 296 297 296 296 297 298 298 298 298 298 299 300 301 303 304 304 304 303 302 303 303 304 304 306 307 307 307 308 309 309 309 309
301 301 300 299 298 296 295 294 294 294 293 293 293 293 294 295 295 297 299 299 298 298 297 297 297 297 296 295 295 295 294 292 291 290 291 290 291 291 291 291 292 292 293 293 294 294 293 292 292 292 294 294 294 295 296 296 295 294 295 296 297 297 297 297 298 300 301 301 301 301 302 301 302 303 303 304 306 306 306 306 306 307 308 309 309
301 300 300 298 297 295 295 294 294 293 293 292 292 292 292 293 294 296 297 298 297 298 297 297 296 296 295 296 296 294 293 291 291 290 290 290 292 291 292 291 292 291 292 292 293 292 291 291 292 292 292 294 294 293 295 296 295 295 293 293 292 295 296 295 295 297 298 298 299 299 299 300 302 303 304 305 306 307 306 306 306 306 307 307 307
300 300 299 298 297 296 294 294 293 293 292 292 291 291 292 292 293 294 296 298 297 297 297 296 296 296 295 295 296 294 293 292 291 291 291 291 291 290 291 291 291 291 291 292 291 291 291 291 290 291 292 292 293 294 295 294 293 293 294 293 291 292 293 295 295 294 295 296 296 297 300 300 302 305 303 304 306 306 306 307 307 307 307 307 306
302 300 299 298 296 295 294 293 292 292 292 292 292 292 291 292 292 294 295 296 297 297 296 296 295 295 294 295 295 296 298 299 298 297 297 297 293 290 291 291 292 291 291 291 291 290 290 290 290 291 291 291 291 292 291 291 291 291 293 294 292 293 293 293 294 295 296 294 295 296 297 300 301 300 302 303 304 305 306 308 309 308 308 307 306
299 298 297 296 295 294 293 292 292 292 292 293 294 293 294 292 292 293 295 296 297 296 295 296 295 295 295 294 300 300 300 299 298 296 295 295 296 295 292 292 291 291 291 290 290 290 290 289 289 289 289 289 290 291 291 292 293 294 293 293 291 292 293 292 293 294 296 295 294 294 297 300 299 299 300 300 301 304 305 308 311 311 308 305 305
299 298 296 294 293 293 293 291 291 292 292 293 293 292 292 293 294 292 293 295 297 295 294 294 294 295 294 294 294 298 299 298 296 295 294 294 294 294 294 295 296 293 291 291 290 290 290 289 289 289 289 289 291 292 292 293 293 293 292 292 292 291 290 289 288 292 296 295 294 293 294 297 299 297 297 299 300 302 304 306 306 307 306 305 305
299 297 295 294 293 293 292 291 290 291 291 294 291 292 292 292 294 294 294 296 297 295 294 294 294 294 293 294 294 295 296 295 295 292 294 294 293 293 293 293 293 294 294 293 291 290 290 289 289 289 290 290 291 292 292 292 292 292 292 292 292 291 290 289 289 289 293 296 293 292 292 296 297 296 296 298 300 301 303 303 303 303 305 305 305
299 297 295 294 293 292 292 291 290 290 289 293 291 292 292 292 292 296 296 296 297 295 293 294 294 293 293 295 293 294 294 299 298 291 290 290 294 294 294 294 294 294 293 292 293 294 292 290 290 290 291 291 291 292 294 293 294 291 292 291 291 291 291 290 290 291 293 295 293 291 290 293 295 295 295 297 299 301 303 303 303 303 304 304 304
298 298 296 294 294 293 292 291 290 289 289 292 291 292 292 291 292 294 296 294 295 295 295 295 295 293 293 292 291 292 291 292 292 291 290 289 289 290 290 290 291 293 293 293 293 293 294 293 292 290 292 294 293 293 295 294 292 291 291 290 291 291 291 290 292 293 294 295 292 291 290 292 294 295 294 297 300 302 303 304 303 304 304 304 304
296 297 297 295 295 295 293 292 291 290 291 292 291 291 291 291 292 294 295 294 294 293 294 295 295 293 292 293 291 291 290 291 293 293 291 290 289 290 289 290 290 291 291 292 292 293 293 293 293 293 293 294 294 294 294 294 293 293 293 292 292 292 292 293 293 294 294 295 294 292 288 292 295 295 295 298 300 302 304 304 303 304 304 304 303
295 295 295 297 295 294 293 292 290 289 289 291 291 291 291 291 293 294 293 292 292 292 292 293 294 294 292 292 291 291 290 290 294 293 293 292 290 289 289 289 289 290 291 295 294 294 294 292 292 293 294 295 294 294 294 294 293 294 294 294 294 293 291 290 289 291 291 294 296 294 292 293 296 295 296 299 301 301 304 306 305 306 305 304 303
294 293 293 294 295 295 295 293 290 288 288 291 291 291 291 291 292 291 291 291 291 290 291 292 293 294 293 292 292 291 290 290 293 291 291 293 291 289 288 288 289 289 290 293 294 293 292 292 292 292 292 292 292 293 292 293 293 294 293 291 290 291 289 287 288 289 290 292 294 295 295 294 296 297 297 299 300 301 303 305 308 307 305 304 302
293 293 293 293 293 294 294 293 292 289 288 291 291 291 291 291 293 290 291 290 289 289 290 291 292 293 294 301 301 294 292 292 293 291 291 293 290 289 288 288 288 288 289 291 291 292 293 293 293 292 292 292 292 293 293 293 293 294 292 289 290 291 289 289 287 288 289 291 293 296 293 292 294 295 295 297 299 301 303 305 308 310 306 303 302
295 294 295 293 292 292 292 294 299 291 289 292 292 291 291 291 292 289 290 289 289 288 289 290 292 292 292 296 299 296 295 294 291 291 291 292 290 289 288 287 287 287 289 290 289 290 290 291 292 293 293 293 294 294 294 294 293 295 294 292 292 290 288 288 288 288 287 289 293 296 292 292 294 296 297 298 298 302 306 309 310 313 310 308 306
Wind_Speed
1 1 1 3 3 2 2 3 3 3 2 3 4 4 4 4 4 4 4 2 2 3 2 3 4 3 1 3 3 3 4 4 3 3 1 2 3 5 10 11 11 10 10 12 13 14 14 14 15 15 14 13 13 14 14 13 12 11 9 10 9 8 7 6 6 6 5 5 4 5 5 4 5 6 6 8 7 6 4 6 7 7 6 8 7
3 1 1 3 3 2 3 3 3 2 2 4 3 3 5 4 4 4 4 2 3 5 3 2 2 2 2 3 4 4 4 3 3 4 4 1 3 4 11 12 11 11 11 12 13 13 14 14 14 15 14 14 13 10 15 13 12 12 11 11 11 10 8 8 7 7 6 7 6 6 6 5 6 6 6 6 8 7 6 7 8 8 7 7 7
3 4 2 2 3 1 1 2 1 1 3 3 3 3 3 3 3 4 3 3 4 5 5 5 4 3 3 3 5 4 4 2 1 2 3 3 3 4 4 10 11 12 12 13 13 13 13 14 15 15 14 14 12 13 14 14 14 13 12 13 13 12 11 10 9 9 8 8 7 7 7 7 7 6 6 7 7 8 8 7 9 9 8 8 6
3 4 4 3 0 3 3 4 3 1 4 3 1 3 3 3 4 4 3 3 4 5 5 5 5 5 4 5 4 4 4 3 3 3 3 4 5 4 3 4 8 12 13 13 12 12 12 13 15 15 15 14 12 13 14 15 15 14 14 14 14 14 12 12 10 10 9 9 8 8 9 8 8 8 7 7 7 7 8 7 9 9 9 9 8
0 2 1 4 2 2 3 3 4 4 4 4 4 4 5 5 5 5 5 5 5 6 5 4 4 5 4 4 4 3 3 3 5 4 4 5 5 5 6 5 5 9 11 11 11 12 12 13 14 15 15 15 14 13 14 14 14 15 15 15 15 14 13 12 12 11 10 10 10 9 9 9 9 9 8 7 7 8 7 7 7 10 10 10 9
2 4 5 5 4 4 4 5 6 4 5 6 6 5 5 5 5 5 5 5 6 6 6 6 6 5 4 4 4 5 4 3 4 4 4 5 5 4 5 5 5 5 5 9 12 13 13 14 14 15 15 15 14 14 15 14 15 15 16 15 14 17 15 13 13 13 12 11 11 10 10 10 9 9 9 8 8 8 8 8 6 10 10 10 10
2 2 6 4 3 4 5 3 5 2 4 4 5 5 5 3 4 5 4 5 4 5 5 6 6 6 6 4 5 5 4 5 4 4 3 3 3 4 5 5 5 5 5 5 8 12 13 14 14 14 14 14 15 15 17 16 16 15 16 16 16 16 16 15 14 13 13 13 12 12 11 12 10 10 10 9 9 9 9 9 8 10 11 11 9
3 3 4 4 5 2 1 1 5 1 4 4 4 5 5 4 4 3 3 4 4 5 5 5 5 6 6 6 6 5 5 5 5 5 4 3 4 4 4 5 5 5 5 5 5 6 11 13 13 14 14 14 14 16 17 18 18 19 18 19 17 17 16 16 15 15 15 14 13 13 13 13 12 12 12 11 10 10 10 10 10 11 10 9 8
6 6 6 5 3 2 4 3 4 6 6 6 6 6 6 5 5 5 4 4 4 4 5 4 5 5 6 5 5 5 6 6 6 5 4 4 4 5 5 5 4 5 3 5 5 5 8 12 13 14 14 14 14 15 17 18 18 17 17 15 18 16 17 17 16 16 15 15 14 14 15 14 12 13 13 13 12 11 11 10 10 12 10 10 10
7 7 7 7 6 5 6 6 5 6 6 6 5 6 5 5 6 5 6 5 5 5 5 6 5 5 6 6 7 6 7 7 6 5 5 4 4 4 5 5 5 5 5 5 5 5 5 8 13 14 13 13 14 15 17 18 18 18 19 17 17 18 18 18 17 17 17 16 16 16 16 15 14 13 13 14 14 12 12 11 11 13 12 11 11
7 7 6 6 6 6 6 5 5 5 5 5 6 6 6 6 6 5 5 5 3 4 5 5 5 5 5 6 6 7 6 6 6 6 6 4 3 5 4 5 5 5 5 5 4 4 5 6 5 6 8 13 14 15 16 17 18 19 19 20 19 18 20 20 19 19 19 18 17 17 16 15 15 15 14 15 15 14 14 13 13 13 12 12 13
7 8 7 6 6 6 6 5 5 5 5 6 5 6 6 6 7 5 6 6 5 5 6 6 4 3 4 6 6 6 6 6 6 5 4 4 4 4 5 5 5 6 5 5 4 3 4 4 4 6 6 9 14 15 16 16 16 17 19 19 19 18 18 19 21 21 20 20 19 18 16 15 17 16 16 16 17 16 16 15 15 15 14 14 14
7 7 8 7 7 5 6 7 7 6 5 5 5 5 5 4 4 4 5 6 5 7 8 6 4 6 4 3 4 4 5 3 6 8 8 7 6 6 6 7 7 6 7 5 4 4 4 4 4 5 6 6 8 14 16 15 16 16 19 20 20 22 21 22 21 20 19 20 20 19 17 17 16 17 18 18 18 17 17 16 16 15 15 15 15
6 6 7 7 6 6 6 6 6 5 5 4 4 5 6 6 5 5 5 5 4 7 8 7 6 6 6 7 6 4 3 2 7 8 9 7 7 7 7 7 8 8 8 7 5 4 4 5 5 5 6 6 7 6 8 10 12 17 18 19 19 21 23 23 21 17 20 20 21 20 19 20 18 18 19 20 19 18 18 17 17 17 16 17 16
6 6 6 6 6 6 5 4 4 4 5 6 6 7 6 6 7 6 6 4 4 5 9 9 5 6 3 2 4 8 5 7 6 12 8 6 6 8 8 7 11 11 9 9 8 7 6 8 7 5 4 6 6 6 7 7 9 13 17 18 19 21 23 24 21 21 18 19 23 23 22 20 20 20 19 19 19 19 18 18 19 18 17 17 17
5 4 5 5 5 5 5 5 5 5 5 5 6 6 6 7 7 7 5 6 6 6 8 9 8 7 5 2 3 2 5 5 10 9 4 9 7 8 7 8 11 13 11 10 11 11 11 11 12 12 10 7 6 6 6 7 11 14 17 18 19 20 22 23 20 23 19 22 25 22 20 20 22 20 21 18 17 17 17 18 20 19 19 18 18
4 4 4 5 5 6 6 5 6 7 5 6 6 5 5 5 6 6 7 4 6 4 7 8 9 9 5 4 3 3 3 7 11 6 5 7 6 8 8 12 12 12 10 10 11 11 11 12 12 12 12 12 10 7 6 6 7 8 8 11 14 16 18 21 23 24 22 26 24 23 21 20 19 20 21 18 16 18 18 19 20 20 20 20 19
5 5 5 5 7 7 6 6 6 6 6 5 6 6 7 7 7 6 7 7 3 6 6 7 6 9 8 7 4 3 6 7 4 8 10 2 6 5 7 11 11 12 9 12 13 12 11 12 12 12 12 11 11 11 9 6 3 2 2 6 12 14 17 18 21 21 22 25 24 21 23 20 22 19 16 19 20 19 20 21 21 21 21 20 20
5 6 8 8 6 6 7 7 7 6 6 7 7 7 7 7 7 7 6 6 7 7 7 7 4 7 7 7 6 7 6 6 6 7 10 8 2 7 9 10 11 10 10 12 13 13 12 11 12 11 11 9 10 9 8 7 9 9 11 12 11 11 11 14 18 24 22 25 26 24 23 23 22 21 21 21 22 21 21 21 21 22 21 21 21
7 7 8 7 7 6 7 7 7 7 7 7 6 5 6 6 7 6 6 6 7 7 6 6 7 5 6 7 7 6 6 5 7 5 5 8 14 10 3 10 11 6 10 11 13 13 13 12 12 12 10 11 11 9 10 8 9 12 12 21 20 13 11 12 13 15 21 26 28 25 25 23 25 22 24 24 22 23 22 22 23 22 22 23 23
8 7 8 7 7 6 6 7 7 6 6 6 5 7 7 6 6 6 6 6 5 4 4 5 4 5 3 4 3 4 4 4 6 6 5 6 7 10 15 15 7 4 10 8 10 10 10 10 11 11 9 11 10 9 12 10 11 12 12 23 23 20 16 14 14 16 16 22 25 26 25 25 27 27 28 26 24 23 22 23 24 24 23 24 23
7 7 7 7 6 6 6 7 6 5 5 6 5 6 5 5 4 4 3 4 3 3 3 3 3 3 3 3 4 4 3 3 4 5 3 3 5 9 10 13 17 13 8 12 12 10 8 10 10 9 11 10 9 10 11 11 11 11 15 23 22 25 22 17 16 16 16 17 19 22 24 24 23 26 31 26 28 27 24 24 24 25 24 25 25
6 6 6 5 6 6 6 6 6 5 5 6 5 4 4 3 3 3 4 4 3 3 3 4 3 4 5 5 5 6 7 7 7 7 6 5 6 6 7 7 10 15 12 10 10 9 10 9 9 10 10 10 9 10 11 11 11 15 23 21 22 24 25 22 20 19 15 14 18 18 22 22 23 25 30 28 30 29 28 28 27 27 26 27 27
5 5 5 6 6 6 6 5 6 6 6 6 6 5 6 5 4 4 4 5 5 5 5 7 7 6 7 7 8 7 8 7 6 7 7 7 6 7 7 9 7 6 9 11 7 8 10 8 10 10 10 9 10 11 11 11 13 23 19 22 24 24 23 22 22 22 19 17 17 17 21 21 23 27 27 26 29 29 30 30 28 27 26 28 28
5 5 5 6 6 6 6 6 6 6 5 5 6 6 6 6 5 5 5 5 7 6 7 7 6 7 7 7 7 8 8 6 7 7 6 6 6 7 7 7 9 9 8 9 8 9 6 9 10 9 10 10 11 11 12 12 12 20 25 17 23 21 21 20 22 23 23 20 18 19 20 20 22 26 23 25 27 29 29 30 28 25 24 25 26
4 5 4 6 6 5 5 6 5 6 6 6 6 5 5 6 6 6 6 5 7 6 7 7 7 8 7 8 8 8 7 7 7 8 8 9 9 10 9 7 7 9 7 9 8 10 5 8 8 9 9 10 11 11 12 14 13 21 27 19 16 18 19 21 24 24 24 23 19 19 20 22 20 23 22 25 26 26 28 26 25 24 24 23 24
5 5 6 6 5 6 6 6 6 6 6 6 6 6 5 6 6 6 6 5 7 7 7 7 7 7 7 7 7 8 7 7 8 9 9 9 9 9 10 11 10 7 9 7 10 7 11 9 8 10 9 11 11 12 13 12 16 24 24 15 12 18 20 22 22 23 25 25 23 20 19 19 16 18 21 21 25 26 26 24 24 24 24 23 24
5 5 5 5 5 6 6 6 6 6 6 6 6 6 7 7 7 7 7 4 6 7 6 7 8 7 6 7 7 7 8 9 9 9 9 8 8 8 8 8 10 12 9 10 8 9 11 11 11 7 9 11 11 11 16 18 13 20 19 13 14 15 19 20 21 24 26 26 24 23 20 18 15 15 21 22 22 24 24 24 22 23 23 23 24
4 4 5 5 5 5 5 6 6 6 6 6 6 7 7 6 6 7 7 6 6 5 6 7 7 7 5 8 8 9 8 8 8 8 8 8 7 7 6 7 7 8 10 11 10 12 11 10 10 13 11 10 11 10 12 12 15 19 14 14 15 14 17 23 24 23 23 24 24 24 21 17 18 17 18 21 23 22 21 21 22 25 24 22 23
4 4 5 6 5 5 5 6 6 6 6 6 6 6 6 6 6 6 5 5 6 6 6 6 7 6 7 9 8 8 8 8 8 7 7 7 7 7 6 6 6 7 7 10 12 8 10 10 9 12 13 13 11 11 11 11 19 21 14 14 14 14 23 26 22 21 21 21 23 23 21 17 17 20 21 22 24 24 22 22 24 21 22 24 25
5 5 6 6 6 6 6 6 6 7 8 7 7 7 5 6 5 6 5 5 6 5 5 5 5 7 9 10 9 8 8 8 7 7 6 7 7 7 7 7 7 6 7 8 12 8 7 10 11 10 13 14 12 12 11 12 15 20 15 13 14 20 24 19 22 21 22 24 24 24 22 18 17 18 21 22 24 25 22 24 25 25 28 27 26
6 6 6 6 6 7 7 8 8 8 8 8 8 7 7 4 4 6 5 5 5 5 4 5 6 8 9 9 9 8 7 7 7 5 5 5 5 6 7 7 7 7 7 8 10 13 8 9 10 12 14 14 14 13 13 12 13 18 13 13 16 20 14 13 19 23 21 23 20 19 23 22 19 17 18 22 24 25 25 22 23 26 28 28 28
5 7 7 8 7 7 8 8 8 8 8 8 7 6 6 6 4 4 4 5 4 4 6 7 7 8 9 9 8 8 6 5 5 5 5 6 6 6 6 7 7 7 8 9 11 13 9 7 9 9 11 13 12 12 14 13 14 13 12 12 14 13 13 12 14 19 20 17 22 26 25 25 23 19 17 19 24 26 25 24 22 25 27 26 25
5 7 7 7 7 8 8 9 8 8 8 7 7 6 7 8 5 4 4 6 6 5 6 6 7 7 7 7 7 5 4 3 5 5 6 7 8 8 8 8 7 8 8 9 10 11 16 11 10 12 12 11 14 13 15 15 15 14 15 13 12 12 12 11 12 13 18 22 23 25 26 23 18 20 21 19 20 23 23 23 23 23 25 27 27
7 8 8 8 8 8 9 8 8 8 7 6 6 7 7 7 6 4 4 5 4 5 7 7 7 6 6 6 4 3 2 4 6 6 6 8 7 8 9 7 7 7 7 8 8 12 15 14 12 13 12 13 12 15 16 14 13 13 15 14 13 10 9 11 12 10 18 22 23 22 23 18 21 24 23 22 18 21 23 23 23 24 25 27 28
8 8 9 9 9 9 8 8 8 7 7 7 7 6 6 6 7 6 4 4 4 4 6 6 6 5 5 4 3 3 4 6 6 6 7 7 7 7 7 6 6 7 8 7 8 9 10 13 12 12 11 12 12 15 13 12 13 12 11 12 12 12 12 11 11 11 15 20 21 20 19 20 21 23 24 23 19 19 22 22 24 22 23 27 27
7 8 8 9 9 8 8 8 7 7 6 6 7 7 7 6 6 7 4 3 5 4 5 5 6 5 3 3 2 5 5 5 5 6 8 9 7 6 6 6 6 6 7 8 8 8 10 12 12 10 11 11 11 13 14 16 14 13 12 13 12 12 13 11 10 10 15 18 16 17 18 20 20 22 23 24 23 19 20 22 23 23 24 26 26
8 8 8 8 8 9 8 7 6 6 5 5 6 6 6 6 6 6 6 3 4 4 4 5 5 4 3 2 5 6 5 5 4 6 6 7 6 6 6 7 6 6 7 8 8 9 9 11 12 13 11 11 12 11 14 15 15 15 13 13 12 10 13 13 12 10 9 9 10 11 14 17 18 20 24 22 20 17 17 19 21 22 23 24 27
8 8 8 9 8 9 7 6 6 5 5 5 6 6 5 6 6 6 6 4 4 2 3 5 4 5 4 4 5 4 4 3 4 5 5 5 5 7 7 7 7 7 7 7 8 8 8 9 10 10 11 10 11 13 12 14 15 14 16 17 16 12 11 12 14 11 8 11 12 16 16 17 19 19 16 17 19 18 17 17 20 20 20 21 23
8 8 9 9 8 7 6 5 5 4 5 6 6 5 5 5 5 5 4 5 2 2 3 4 4 4 5 4 4 4 4 3 4 3 4 5 4 6 7 7 7 8 7 7 7 8 8 8 9 10 9 9 9 8 11 13 13 12 11 13 18 18 18 13 12 13 13 9 12 10 10 13 14 12 16 18 18 18 19 17 18 20 20 22 24
7 9 8 8 8 7 6 5 5 5 5 5 4 4 6 6 5 5 5 5 2 3 4 3 4 4 4 4 3 2 3 7 6 3 6 6 5 6 7 7 8 8 8 7 8 8 8 8 9 9 10 10 9 11 11 12 13 13 14 13 13 16 17 18 15 11 11 12 11 12 12 9 8 11 11 11 12 15 15 16 14 18 20 21 23
9 9 9 8 7 6 5 4 4 5 4 4 5 7 6 3 4 4 5 3 3 3 4 3 2 3 3 4 3 9 6 5 5 7 7 9 9 7 7 8 8 8 8 8 9 8 8 9 10 11 12 11 12 12 12 12 13 14 13 13 15 14 14 16 16 10 8 11 12 13 10 6 10 12 10 12 13 12 10 11 9 10 14 19 22
10 10 9 8 6 5 5 4 4 4 4 4 8 9 8 7 5 3 3 4 3 3 4 2 2 2 1 3 3 5 5 3 4 8 8 9 10 11 13 13 12 10 9 10 9 9 9 9 9 10 11 13 13 13 12 11 11 13 13 13 13 14 13 15 18 16 6 5 10 12 14 5 6 11 13 12 12 11 10 10 15 16 17 18 21
9 9 9 7 6 5 4 4 4 4 4 7 10 12 13 13 9 5 3 4 2 2 4 2 1 1 1 3 3 3 2 2 4 4 6 9 11 12 13 14 15 16 13 10 10 10 10 10 11 11 12 12 13 12 12 13 15 15 14 14 13 13 15 15 15 17 13 7 11 12 17 9 6 9 12 12 11 11 11 14 18 19 19 20 20
7 9 8 8 7 5 5 5 4 4 4 8 10 12 13 13 13 9 5 4 5 4 4 5 1 2 2 4 3 2 1 5 5 4 4 5 9 12 13 13 14 14 15 16 15 11 10 9 10 12 12 13 13 13 14 16 16 16 16 14 13 14 14 15 17 15 16 9 11 14 18 15 8 12 13 13 12 11 11 14 18 19 21 21 21
7 8 8 8 6 6 5 5 4 4 4 6 10 12 13 13 13 9 5 5 6 7 7 9 4 2 4 4 2 1 2 4 4 4 5 5 7 7 7 7 7 10 13 15 16 17 12 8 9 12 14 11 12 14 16 16 16 16 16 16 16 15 15 16 17 17 16 11 12 12 16 15 10 11 14 12 10 10 10 14 19 19 19 21 21
5 6 8 7 6 6 5 5 5 5 3 8 10 12 12 13 12 9 6 6 6 6 6 7 8 2 4 3 1 1 3 5 5 7 7 6 7 7 7 8 8 8 9 10 10 9 8 7 8 11 13 12 12 15 16 15 16 15 14 17 18 17 17 16 14 12 13 12 13 12 14 14 10 11 12 12 11 10 10 13 17 19 20 20 21
4 4 5 6 5 5 5 5 5 4 3 7 10 11 12 12 11 6 5 5 6 6 6 6 6 3 1 2 1 2 4 5 9 14 12 9 8 9 9 9 9 8 8 10 15 14 11 9 9 11 12 13 16 17 18 17 16 15 15 14 14 14 14 13 14 10 12 9 9 10 12 14 10 10 13 11 10 11 11 10 14 19 19 19 21
6 5 4 5 5 6 5 4 5 4 4 5 8 9 11 11 8 6 4 6 5 6 6 5 4 4 2 0 1 3 5 6 11 14 16 14 10 10 9 9 9 9 10 9 12 15 15 15 17 19 18 19 21 22 23 24 19 18 15 15 14 12 14 14 14 12 11 9 8 9 10 14 10 8 11 12 10 11 12 11 11 14 18 18 20
7 6 5 5 4 5 6 5 5 4 3 3 6 8 9 9 7 4 4 5 6 5 6 7 6 5 4 6 5 5 7 8 13 16 18 15 10 10 9 9 11 10 11 9 7 9 13 14 15 16 18 20 21 21 21 22 22 19 14 15 15 14 13 12 15 13 14 11 9 7 10 14 12 10 11 12 11 10 11 12 12 12 14 16 20
7 7 6 6 4 4 4 5 8 6 4 2 4 5 6 5 4 3 4 4 5 6 6 7 7 7 6 6 10 11 10 12 16 17 21 17 10 10 9 8 9 11 11 10 11 11 10 8 10 13 15 17 16 15 16 21 22 20 14 15 14 14 13 11 12 13 13 10 5 7 10 11 10 10 8 9 7 8 7 9 9 7 6 7 10
Wind_Direction
172 216 172 210 215 222 230 245 223 246 260 260 252 269 273 263 251 267 293 301 302 314 314 332 349 333 353 311 295 298 303 313 288 278 314 97 170 200 202 208 213 215 217 220 224 223 223 223 226 229 235 240 237 210 200 198 196 197 195 183 193 203 220 219 225 220 212 204 192 188 209 204 206 212 213 211 203 198 219 195 167 177 166 150 145
166 225 293 317 315 308 254 228 223 228 272 272 275 285 276 285 306 302 292 317 339 316 331 311 315 292 285 299 280 262 255 246 311 323 327 317 175 196 209 215 217 218 223 226 227 227 229 230 232 234 237 242 253 208 197 199 197 199 194 185 192 194 206 217 222 232 211 214 205 211 210 201 212 205 202 211 215 211 211 219 174 180 182 171 155
143 160 206 218 272 257 229 189 269 195 217 250 269 249 269 325 318 333 332 328 309 297 305 304 304 294 261 253 266 267 260 291 303 285 284 282 247 221 220 218 220 224 226 231 233 230 229 233 237 239 240 241 246 191 200 200 199 201 198 191 192 192 195 208 216 224 221 216 211 217 214 210 211 211 199 210 212 212 211 218 183 183 183 177 165
167 167 198 183 214 16 18 346 339 257 174 211 292 327 337 313 327 322 341 357 330 322 304 292 295 292 300 296 294 281 255 249 260 262 258 267 246 236 239 236 233 231 233 235 237 238 237 235 237 242 241 241 238 209 203 203 202 200 200 195 194 193 194 200 209 216 218 213 212 217 217 212 214 212 204 208 212 205 211 208 181 178 178 177 168
161 132 121 91 80 27 13 7 323 343 4 360 345 340 348 358 353 348 346 356 349 330 330 331 323 307 306 298 317 315 276 269 264 258 262 262 258 240 226 234 236 238 240 241 239 239 240 242 241 241 244 243 240 233 230 222 212 203 202 202 197 194 193 201 207 210 216 217 216 220 219 215 213 208 208 207 204 205 206 209 178 175 178 177 175
42 44 69 50 52 30 18 5 339 350 18 13 5 5 1 13 356 359 358 356 343 331 335 332 317 312 315 304 320 307 296 267 251 247 256 266 264 258 242 232 243 241 234 240 241 239 240 241 242 244 245 245 243 239 231 224 235 220 208 208 201 194 194 199 206 210 213 218 218 215 218 217 211 209 207 201 204 205 203 202 184 176 177 180 181
67 82 73 63 62 45 32 332 340 334 28 16 19 10 3 21 11 2 344 342 331 325 325 314 314 312 300 302 299 295 296 286 288 289 281 280 276 259 261 248 237 237 237 235 242 243 241 240 240 241 243 243 242 241 239 235 224 227 225 215 209 200 195 197 205 210 214 215 217 216 216 217 211 207 205 197 201 201 200 200 200 178 183 182 185
57 61 78 96 57 51 88 276 267 349 29 21 29 14 359 355 349 347 351 324 325 315 316 317 320 317 311 306 296 289 286 288 283 279 271 278 293 288 267 253 250 248 233 226 232 241 243 242 240 239 241 243 243 243 244 242 239 233 230 230 221 205 198 197 203 209 210 215 215 214 215 216 212 211 202 194 198 199 199 200 202 191 188 179 174
29 29 49 73 86 29 8 13 31 35 34 29 27 18 11 359 353 343 332 304 312 303 312 315 311 303 301 305 297 296 292 281 278 270 277 280 272 277 286 284 276 262 233 214 223 231 237 238 241 239 239 240 240 241 243 245 245 245 243 223 235 222 203 202 205 206 207 214 212 213 213 213 213 213 208 194 194 201 199 197 200 199 181 179 172
36 40 56 60 64 58 43 39 40 41 40 37 31 18 19 21 6 354 353 346 327 321 335 333 317 309 305 303 301 297 285 282 274 271 265 271 277 277 268 271 278 275 268 248 229 226 231 239 240 242 240 239 240 240 242 244 245 245 244 228 236 237 223 211 208 205 208 213 214 213 211 210 211 210 211 203 194 198 201 193 195 195 187 183 172
39 37 45 54 58 53 47 39 45 44 43 36 29 18 16 13 10 348 348 341 342 4 0 332 325 318 320 313 306 294 287 280 276 269 258 249 264 277 295 288 289 288 278 268 247 220 224 230 232 235 241 237 237 238 239 241 244 245 245 243 236 237 228 223 217 214 213 213 211 213 212 207 207 208 203 208 199 194 197 192 193 190 188 184 178
43 38 38 41 47 51 46 38 39 40 39 38 31 21 11 8 2 351 347 342 350 9 357 339 319 307 315 306 295 297 300 304 290 291 315 323 305 298 295 297 302 292 284 270 263 258 246 234 226 229 231 235 232 234 235 236 238 242 245 246 244 244 231 230 226 219 212 212 210 210 212 207 206 207 201 207 201 198 195 192 193 190 187 188 183
44 41 39 38 38 36 43 35 30 24 26 29 26 15 9 10 358 345 351 355 353 3 355 330 346 342 320 296 300 309 306 354 28 35 10 343 327 329 320 322 305 296 288 280 276 275 278 277 246 236 231 231 236 234 235 234 233 236 238 241 243 240 230 237 243 232 226 213 210 206 206 208 204 205 206 204 204 204 196 193 193 192 188 189 188
48 47 43 40 36 33 38 43 34 24 21 16 23 21 18 18 13 10 359 7 359 357 359 358 19 346 328 329 329 323 304 50 36 6 353 350 345 342 339 331 327 316 312 312 300 283 268 261 257 244 240 234 232 231 234 236 235 233 234 235 239 241 243 239 235 237 239 219 215 212 206 208 206 204 207 205 203 205 199 194 194 193 192 191 190
43 45 47 38 37 37 30 38 41 32 25 22 27 31 21 18 15 22 2 5 356 4 18 23 358 316 298 3 346 348 342 1 350 350 346 3 357 6 358 4 6 359 347 339 329 326 338 329 323 311 282 254 244 236 230 229 228 227 229 232 233 236 240 242 243 234 235 239 220 214 209 205 207 205 206 210 205 205 204 199 198 195 193 195 191
44 43 50 42 41 36 26 28 27 22 37 46 39 33 22 22 22 28 26 19 4 7 22 14 21 6 18 347 289 349 333 2 335 314 338 357 6 7 5 11 4 360 355 3 5 4 2 354 353 345 334 309 281 268 243 231 232 228 227 226 229 232 237 236 238 243 229 240 232 218 218 207 206 205 206 211 203 204 204 202 200 199 197 194 194
43 43 47 48 42 40 33 24 31 30 43 50 44 29 32 38 36 36 32 27 25 11 16 18 28 24 21 1 359 23 16 328 324 289 45 343 9 6 7 9 5 358 349 6 1 5 0 355 351 345 345 342 330 295 308 309 311 331 311 292 275 255 241 241 230 228 223 237 235 226 214 215 205 205 207 208 205 199 202 201 203 202 201 198 195
39 39 35 42 47 44 39 32 32 33 42 46 37 30 34 37 33 41 34 26 46 38 23 14 24 29 29 32 3 1 335 315 345 319 333 30 358 14 15 9 2 351 354 4 359 356 356 350 346 344 345 346 6 10 359 355 10 350 314 307 314 294 287 283 268 247 231 243 235 235 231 215 212 211 201 209 209 197 201 199 202 204 202 201 195
40 46 42 39 41 43 43 37 35 40 38 36 34 38 41 43 39 41 35 28 34 45 33 6 4 31 19 16 20 21 7 6 11 336 333 330 48 11 359 6 357 344 4 358 356 353 348 345 342 341 342 356 7 12 11 12 5 359 352 339 314 299 287 276 277 276 261 250 245 239 234 225 212 203 205 210 211 206 199 201 200 203 203 202 198
43 46 48 41 38 39 41 40 41 41 39 36 45 48 52 47 45 42 35 36 40 44 33 20 31 18 3 15 17 10 10 36 30 10 335 331 325 345 14 356 345 358 8 352 356 349 340 340 340 343 342 3 354 8 6 7 18 5 355 347 337 318 285 273 271 261 261 260 256 242 238 225 220 202 205 207 209 208 201 200 201 201 202 200 200
49 48 44 39 39 46 42 42 44 42 40 38 47 54 55 55 46 42 40 35 41 48 47 29 32 30 10 22 19 12 5 32 32 17 15 336 325 343 334 336 338 32 353 357 347 339 333 336 337 335 355 355 345 10 4 2 2 354 344 340 339 329 307 295 281 270 252 251 257 257 249 235 223 206 204 206 206 205 204 204 202 201 200 202 199
47 47 47 39 42 47 45 43 40 39 43 38 45 56 56 60 55 57 52 49 38 52 51 34 27 13 29 14 12 5 37 43 30 21 9 46 347 332 341 340 335 335 358 346 341 337 339 339 332 352 352 348 347 7 359 354 351 347 339 337 338 338 327 307 298 284 272 261 253 254 256 246 237 216 211 202 206 204 203 201 203 200 200 201 199
54 49 47 44 44 45 42 41 39 37 40 36 36 48 58 60 52 49 47 53 41 44 28 22 18 16 8 10 3 24 27 28 13 17 12 354 345 336 329 339 330 323 339 342 334 339 341 330 350 352 345 341 353 358 354 346 345 338 336 335 333 331 328 318 311 302 282 264 261 255 252 249 241 229 218 204 207 202 203 200 200 202 201 201 198
51 57 49 45 48 42 39 39 37 36 37 34 33 39 45 38 26 38 40 37 30 34 34 30 25 21 12 13 24 35 38 33 27 19 10 353 345 332 336 337 321 317 318 330 328 345 332 348 353 342 341 345 355 352 346 344 334 335 337 333 328 323 321 318 315 313 300 277 264 257 254 245 242 241 225 218 213 205 205 206 203 203 201 204 201
42 57 59 56 51 45 38 38 36 32 35 36 35 44 48 33 28 25 36 44 41 42 39 30 31 24 13 26 38 36 32 29 30 19 0 349 352 349 347 345 330 327 333 339 334 334 343 350 343 340 341 353 350 346 342 338 333 333 333 327 323 319 318 318 321 321 315 293 273 267 262 253 238 246 235 221 216 214 208 206 204 202 201 201 202
57 51 59 64 55 50 45 41 37 35 37 38 40 39 48 42 30 24 27 41 47 41 39 34 30 30 37 45 40 32 29 26 25 17 13 14 13 6 349 345 340 330 326 333 335 334 342 350 338 339 345 350 345 341 340 332 330 331 326 322 319 320 323 324 321 318 320 315 289 271 267 262 244 238 236 228 218 216 213 207 201 198 201 199 199
67 57 57 65 61 50 49 45 36 36 38 40 39 37 36 38 31 27 29 41 50 46 42 36 30 32 45 50 44 35 25 28 27 31 29 26 19 8 0 349 345 344 338 336 330 334 328 325 343 340 348 343 341 338 334 332 328 323 319 320 322 326 324 318 317 319 319 318 308 288 271 263 250 244 241 232 225 218 214 209 205 199 200 196 198
74 65 57 72 66 60 54 47 41 39 38 43 44 42 35 35 29 24 26 26 46 48 45 37 29 33 45 50 48 35 30 34 38 35 32 26 19 8 6 4 353 339 341 335 335 318 336 331 328 340 344 339 334 331 329 327 321 319 326 327 324 319 317 317 320 319 316 312 309 300 281 264 256 233 240 241 232 226 215 212 202 207 202 196 198
89 74 71 70 77 72 61 54 46 40 39 39 44 45 40 37 32 28 28 28 41 40 44 41 30 31 35 52 49 45 40 40 39 35 28 22 15 7 9 5 355 340 336 333 334 326 331 343 328 324 337 335 329 328 325 321 324 331 329 323 318 316 318 321 319 314 312 312 312 309 295 269 257 248 238 240 240 235 222 211 210 210 202 198 198
99 89 76 66 58 63 63 56 49 42 38 35 38 38 44 35 30 29 32 40 40 37 39 43 32 35 46 52 47 50 39 40 40 28 26 17 8 4 358 355 355 348 332 326 320 319 319 324 322 319 329 331 330 323 320 320 327 327 323 318 319 319 320 317 315 314 315 320 321 319 308 282 261 254 247 239 239 239 224 214 213 207 204 199 201
86 81 79 73 67 57 55 51 45 42 34 29 28 30 30 43 30 32 24 43 46 47 44 44 33 47 54 53 47 47 40 36 29 24 16 12 1 358 351 350 350 342 330 319 316 316 322 317 319 323 322 323 323 318 319 321 321 324 319 319 319 318 319 317 318 321 323 318 317 319 319 309 289 272 259 244 237 236 233 219 211 201 206 200 199
84 83 78 76 68 62 54 51 44 39 35 26 22 23 20 19 37 32 30 47 51 51 45 34 42 57 60 55 51 45 38 34 22 10 6 359 359 354 350 347 341 337 329 320 311 309 330 320 322 318 320 319 318 318 318 313 317 318 319 318 318 320 321 319 318 317 314 311 316 332 329 321 310 294 267 254 246 238 234 226 215 204 205 204 198
94 89 86 79 72 65 59 53 47 40 34 26 17 16 19 9 6 37 40 47 48 47 52 42 47 65 64 59 53 49 39 37 5 356 353 357 352 348 348 345 341 341 340 334 327 321 318 322 311 311 316 315 315 317 312 315 317 319 316 317 320 321 319 317 313 310 309 320 335 330 325 318 314 314 299 266 253 244 235 228 219 211 205 205 198
83 84 83 80 74 68 63 55 48 40 32 27 16 12 15 9 351 35 41 45 37 40 60 49 50 65 66 64 56 50 42 31 9 359 359 358 353 351 351 351 348 345 346 339 334 327 325 327 321 322 319 322 316 321 318 320 319 319 318 317 316 315 313 313 312 311 319 329 325 320 314 313 322 330 327 304 261 248 240 230 222 217 212 203 196
85 88 83 76 70 68 66 59 50 41 31 23 14 14 12 8 351 22 51 53 39 54 66 61 60 66 67 65 59 45 30 28 17 13 7 360 358 356 352 349 345 337 333 331 322 328 325 325 324 327 327 323 319 324 321 314 310 312 311 312 313 309 306 308 309 311 316 313 310 308 308 317 329 325 320 312 285 255 245 237 228 219 206 209 203
91 85 81 76 71 67 63 59 53 43 33 21 15 14 13 359 0 351 48 60 48 67 81 74 67 72 81 75 62 41 41 41 28 18 7 3 1 356 348 341 331 326 324 321 321 313 317 320 330 324 319 316 320 320 316 311 312 310 306 305 307 306 307 307 309 310 305 302 303 303 310 321 320 315 311 306 295 267 253 241 233 219 206 208 204
86 88 83 79 75 67 61 59 54 46 36 24 16 12 5 1 359 352 351 58 62 60 83 85 84 83 87 97 71 50 55 51 28 22 7 3 356 350 339 327 320 316 317 319 319 317 319 317 317 317 316 314 314 316 319 323 323 318 315 311 313 312 308 306 302 294 296 300 302 306 312 312 309 305 303 302 299 281 260 246 235 225 213 208 204
90 87 87 82 80 74 66 59 54 50 40 29 23 11 3 359 356 356 350 44 67 60 83 92 91 89 90 83 57 70 68 59 37 24 7 353 347 342 330 321 317 312 311 316 319 321 320 321 324 320 322 319 321 322 327 328 324 320 317 315 314 312 314 311 307 307 307 311 317 312 308 304 299 297 297 297 303 294 272 254 240 230 221 212 203
95 91 88 89 85 81 73 63 55 46 39 31 24 13 4 2 357 354 358 359 60 25 85 99 96 91 50 52 74 83 86 77 52 26 359 344 344 336 326 318 316 314 311 314 321 323 323 322 322 323 323 327 323 319 323 320 316 318 316 318 315 314 304 305 305 304 303 301 293 292 289 289 293 291 293 314 314 309 294 271 254 237 224 213 210
105 99 95 93 89 85 80 71 57 49 39 31 21 11 7 1 355 354 354 335 16 17 65 90 98 89 58 61 105 115 114 96 64 26 0 342 336 334 325 321 318 317 310 308 317 320 321 321 322 326 325 314 314 307 311 316 316 312 316 313 312 314 313 306 298 302 301 296 298 297 288 287 285 295 313 308 307 310 307 292 266 248 231 217 212
97 94 95 91 90 87 81 72 59 47 43 31 21 6 1 0 0 355 336 337 315 40 45 93 96 94 82 70 127 131 90 66 55 23 355 339 337 331 323 323 317 315 304 301 312 314 314 317 317 317 315 313 314 317 319 322 319 314 314 309 300 306 304 304 298 283 284 294 294 293 292 286 302 306 302 300 298 303 301 293 274 256 242 227 216
101 95 86 83 84 86 83 69 59 49 40 31 17 19 20 355 352 341 334 332 325 44 47 92 95 94 95 77 76 62 86 79 24 356 342 335 328 324 317 318 314 310 301 303 309 310 311 315 318 319 318 318 317 317 311 303 301 304 305 307 304 302 300 297 292 282 283 288 293 291 285 294 301 292 289 292 292 292 291 293 279 262 244 232 224
105 102 97 94 92 86 85 77 58 50 37 18 14 26 30 22 8 355 335 323 314 62 30 77 134 95 55 90 100 54 50 28 333 336 331 325 317 319 316 311 306 305 306 306 302 305 308 307 310 312 313 314 315 315 307 298 305 308 309 306 302 303 300 304 304 305 285 290 295 295 289 270 269 286 289 283 284 284 279 273 278 268 250 238 225
112 110 108 108 105 101 92 80 63 46 34 10 21 22 18 15 14 359 333 331 349 64 38 27 111 162 109 81 81 61 36 351 333 328 318 310 311 313 312 306 303 300 295 293 301 304 302 306 308 310 310 311 312 313 311 313 313 310 305 302 299 297 298 296 294 293 300 323 296 293 289 285 275 273 279 281 280 276 272 270 267 267 260 243 228
112 116 122 117 112 110 96 80 67 47 42 12 24 25 21 15 9 13 359 356 15 352 9 347 92 173 100 85 69 31 285 315 322 312 302 307 309 309 304 300 296 294 296 299 292 283 287 291 297 305 308 310 311 312 312 309 309 305 305 302 301 295 291 288 290 291 291 301 293 288 288 287 286 281 276 276 273 272 271 264 260 258 256 246 231
103 122 130 128 129 115 104 91 72 55 41 15 29 27 23 18 13 17 1 13 26 18 8 3 337 126 90 100 80 336 300 294 298 300 312 319 312 307 306 301 296 296 298 295 295 292 287 281 292 299 302 303 303 306 307 308 308 306 305 301 301 296 292 287 287 284 286 285 278 281 280 278 275 273 271 271 267 268 264 262 260 257 252 243 231
112 118 132 138 136 129 117 101 80 51 28 19 30 30 26 20 14 25 3 9 21 13 7 7 359 39 114 126 133 317 279 299 282 322 335 326 315 308 306 306 302 299 297 298 297 297 297 294 289 290 292 295 298 304 304 303 301 297 295 296 297 295 290 286 273 262 264 263 258 257 266 276 270 266 267 270 272 269 263 264 257 256 251 238 228
108 95 90 109 125 128 128 110 85 57 26 23 31 31 28 22 23 23 10 17 17 5 3 4 359 348 143 124 101 322 302 282 316 332 330 333 324 318 316 311 308 303 296 289 288 289 292 294 293 289 290 290 295 299 303 303 303 301 298 294 292 287 288 289 288 288 281 276 255 249 261 270 266 261 271 268 271 274 272 266 263 257 248 233 222
112 103 104 100 114 127 130 115 105 85 46 27 39 35 28 25 27 11 11 18 12 5 354 349 346 339 295 226 260 305 296 315 322 332 329 339 326 321 315 312 309 307 300 298 296 301 302 296 292 288 284 293 303 305 304 302 302 305 307 303 300 300 294 290 291 290 282 281 267 260 270 278 278 277 281 280 276 273 275 273 267 255 237 226 215
127 132 120 108 113 125 134 143 135 115 88 44 53 41 33 25 26 24 359 18 3 3 352 345 350 347 303 286 294 306 321 318 325 330 327 333 327 319 317 316 316 312 303 301 310 310 305 296 287 290 303 307 308 308 307 308 308 307 305 302 303 301 291 282 293 296 293 281 274 266 266 264 277 268 271 279 280 262 260 263 261 250 227 218 210
146 142 134 127 131 132 139 146 143 130 132 87 56 42 45 32 29 10 11 21 14 354 353 341 340 344 329 305 314 322 319 318 326 327 324 326 325 317 318 317 310 307 301 313 319 316 318 311 310 318 317 316 315 314 314 311 308 306 303 300 299 297 293 288 286 294 292 277 252 235 248 262 263 265 260 279 284 282 251 259 260 248 206 201 203